Location: Bassano
(45.7667°N, 11.7333°E)
Time: 20:04:42
(UTC+00:00)

STARLINK-1312 - Visible Passes

Search period start: 29 September 2020 00:00
Search period end: 09 October 2020 00:00
Orbit: 548 x 551 km, 53.0° (Epoch: 29 September)

Date Brightness Start Highest point End Pass type
(mag) Time Alt. Az. Time Alt. Az. Time Alt. Az.
29 Sep 6.9 04:27:17 10° SE 04:28:00 10° SE 04:28:43 10° ESE visible
30 Sep 6.4 04:20:03 10° SSE 04:22:18 14° SE 04:24:33 10° E visible
01 Oct 6.2 04:13:38 10° S 04:16:35 19° SE 04:19:33 10° E visible
02 Oct 5.7 04:07:27 10° S 04:10:51 25° SE 04:14:16 10° ENE visible
03 Oct 5.2 04:01:24 10° SSW 04:05:06 33° SE 04:08:50 10° ENE visible
04 Oct 4.6 03:55:45 12° SSW 03:59:21 43° SE 04:03:17 10° ENE visible
05 Oct 4.1 03:50:50 19° SW 03:53:34 56° SE 03:57:38 10° ENE visible
06 Oct 6.5 02:10:05 12° ESE 02:10:05 12° ESE 02:10:51 10° E visible
06 Oct 3.7 03:45:45 29° SW 03:47:46 72° SE 03:51:55 10° ENE visible
07 Oct 6.5 02:04:52 13° E 02:04:52 13° E 02:05:41 10° E visible
07 Oct 3.5 03:40:31 40° WSW 03:41:57 90° N 03:46:07 10° ENE visible
08 Oct 6.6 01:59:32 13° E 01:59:32 13° E 02:00:11 10° E visible
08 Oct 3.6 03:35:11 51° W 03:36:07 73° NNW 03:40:16 10° ENE visible
